TimeMDT,TemperatureF,Dew PointF,Humidity,Sea Level PressureIn,VisibilityMPH,Wind Direction,Wind SpeedMPH,Gust SpeedMPH,PrecipitationIn,Events,Conditions,WindDirDegrees,DateUTC
12:53 AM,37.0,21.9,54,30.12,10.0,NNE,6.9,-,N/A,,Clear,30,2013-03-15 06:53:00
1:53 AM,35.1,21.0,57,30.11,10.0,North,4.6,-,N/A,,Clear,360,2013-03-15 07:53:00
2:53 AM,34.0,21.9,61,30.08,10.0,ENE,6.9,-,N/A,,Clear,60,2013-03-15 08:53:00
3:53 AM,35.1,21.0,57,30.05,10.0,North,6.9,-,N/A,,Clear,10,2013-03-15 09:53:00
4:53 AM,28.9,21.0,72,30.06,10.0,ENE,6.9,-,N/A,,Clear,60,2013-03-15 10:53:00
5:53 AM,28.9,21.0,72,30.05,10.0,NE,6.9,-,N/A,,Clear,50,2013-03-15 11:53:00
6:53 AM,30.0,21.0,69,30.07,10.0,NE,6.9,-,N/A,,Clear,40,2013-03-15 12:53:00
7:53 AM,32.0,21.9,66,30.09,10.0,NE,6.9,-,N/A,,Clear,50,2013-03-15 13:53:00
8:53 AM,39.0,23.0,53,30.08,10.0,ENE,4.6,-,N/A,,Clear,60,2013-03-15 14:53:00
9:53 AM,48.9,23.0,36,30.04,10.0,NE,3.5,-,N/A,,Clear,40,2013-03-15 15:53:00
10:53 AM,60.1,19.0,20,29.96,10.0,Calm,Calm,-,N/A,,Clear,0,2013-03-15 16:53:00
11:53 AM,70.0,17.1,13,29.92,10.0,SSE,5.8,-,N/A,,Clear,150,2013-03-15 17:53:00
12:53 PM,73.9,9.0,8,29.89,10.0,ESE,4.6,-,N/A,,Clear,110,2013-03-15 18:53:00
1:53 PM,73.9,8.1,8,29.86,10.0,Variable,5.8,-,N/A,,Clear,0,2013-03-15 19:53:00
2:24 PM,73.4,3.2,6,30.02,10.0,West,8.1,20.7,N/A,,Clear,280,2013-03-15 20:24:00
2:53 PM,73.9,1.0,6,29.85,10.0,NW,11.5,27.6,N/A,,Clear,310,2013-03-15 20:53:00
3:53 PM,73.0,6.1,7,29.83,10.0,WNW,15.0,20.7,N/A,,Clear,290,2013-03-15 21:53:00
4:53 PM,72.0,5.0,7,29.84,10.0,West,16.1,-,N/A,,Clear,260,2013-03-15 22:53:00
5:53 PM,70.0,6.1,8,29.83,10.0,West,24.2,32.2,N/A,,Clear,260,2013-03-15 23:53:00
6:53 PM,66.0,9.0,11,29.87,10.0,West,12.7,-,N/A,,Clear,260,2013-03-16 00:53:00
7:53 PM,62.1,10.0,13,29.88,10.0,West,9.2,-,N/A,,Clear,260,2013-03-16 01:53:00
8:53 PM,57.9,12.0,16,29.86,10.0,West,15.0,-,N/A,,Clear,260,2013-03-16 02:53:00
9:53 PM,55.0,14.0,20,29.83,10.0,WSW,9.2,-,N/A,,Clear,250,2013-03-16 03:53:00
10:53 PM,57.9,12.9,17,29.78,10.0,WSW,8.1,-,N/A,,Clear,250,2013-03-16 04:53:00
11:53 PM,55.9,12.9,18,29.73,10.0,West,13.8,-,N/A,,Clear,260,2013-03-16 05:53:00